Year,Month,Day,Hour,Minute,Value (Times are PST for temperature in C)
2019,04,01,00,00,8.90
2019,04,01,00,01,8.90
2019,04,01,00,02,8.90
2019,04,01,00,03,8.90
2019,04,01,00,04,8.90
2019,04,01,00,05,9.00
2019,04,01,00,06,9.00
2019,04,01,00,07,9.10
2019,04,01,00,08,9.10
2019,04,01,00,09,9.10
2019,04,01,00,10,9.10
2019,04,01,00,11,9.20
2019,04,01,00,12,9.20
2019,04,01,00,13,9.20
2019,04,01,00,14,9.20
2019,04,01,00,15,9.20
2019,04,01,00,16,9.30
2019,04,01,00,17,9.20
2019,04,01,00,18,9.30
2019,04,01,00,19,9.30
2019,04,01,00,20,9.30
2019,04,01,00,21,9.30
2019,04,01,00,22,9.30
2019,04,01,00,23,9.30
2019,04,01,00,24,9.30
2019,04,01,00,25,9.30
2019,04,01,00,26,9.30
2019,04,01,00,27,9.30
2019,04,01,00,28,9.30
2019,04,01,00,29,9.30
2019,04,01,00,30,9.30
2019,04,01,00,31,9.30
2019,04,01,00,32,9.20
2019,04,01,00,33,9.30
2019,04,01,00,34,9.30
2019,04,01,00,35,9.30
2019,04,01,00,36,9.30
2019,04,01,00,37,9.30
2019,04,01,00,38,9.30
2019,04,01,00,39,9.30
2019,04,01,00,40,9.30
2019,04,01,00,41,9.30
2019,04,01,00,42,9.30
2019,04,01,00,43,9.30
2019,04,01,00,44,9.30
2019,04,01,00,45,9.30
2019,04,01,00,46,9.20
2019,04,01,00,47,9.20
2019,04,01,00,48,9.20
2019,04,01,00,49,9.20
2019,04,01,00,50,9.10
2019,04,01,00,51,9.10
2019,04,01,00,52,9.10
2019,04,01,00,53,9.10
2019,04,01,00,54,9.00
2019,04,01,00,55,9.00
2019,04,01,00,56,9.00
2019,04,01,00,57,8.90
2019,04,01,00,58,8.90
2019,04,01,00,59,8.80
2019,04,01,01,00,8.80
2019,04,01,01,01,8.80
2019,04,01,01,02,8.70
2019,04,01,01,03,8.70
2019,04,01,01,04,8.60
2019,04,01,01,05,8.60
2019,04,01,01,06,8.50
2019,04,01,01,07,8.50
2019,04,01,01,08,8.50
2019,04,01,01,09,8.40
2019,04,01,01,10,8.40
2019,04,01,01,11,8.40
2019,04,01,01,12,8.30
2019,04,01,01,13,8.30
2019,04,01,01,14,8.30
2019,04,01,01,15,8.30
2019,04,01,01,16,8.30
2019,04,01,01,17,8.30
2019,04,01,01,18,8.30
2019,04,01,01,19,8.30
2019,04,01,01,20,8.30
2019,04,01,01,21,8.30
2019,04,01,01,22,8.30
2019,04,01,01,23,8.30
2019,04,01,01,24,8.30
2019,04,01,01,25,8.20
2019,04,01,01,26,8.20
2019,04,01,01,27,8.10
2019,04,01,01,28,8.10
2019,04,01,01,29,8.00
2019,04,01,01,30,7.90
2019,04,01,01,31,7.80
2019,04,01,01,32,7.80
2019,04,01,01,33,7.80
2019,04,01,01,34,7.70
2019,04,01,01,35,7.70
2019,04,01,01,36,7.60
2019,04,01,01,37,7.60
2019,04,01,01,38,7.50
2019,04,01,01,39,7.50
2019,04,01,01,40,7.40
2019,04,01,01,41,7.40
2019,04,01,01,42,7.30
2019,04,01,01,43,7.30
2019,04,01,01,44,7.30
2019,04,01,01,45,7.20
2019,04,01,01,46,7.20
2019,04,01,01,47,7.20
2019,04,01,01,48,7.20
2019,04,01,01,49,7.10
2019,04,01,01,50,7.10
2019,04,01,01,51,7.10
2019,04,01,01,52,7.10
2019,04,01,01,53,7.00
2019,04,01,01,54,7.00
2019,04,01,01,55,6.90
2019,04,01,01,56,6.90
2019,04,01,01,57,6.90
2019,04,01,01,58,6.80
2019,04,01,01,59,6.80
2019,04,01,02,00,6.80
2019,04,01,02,01,6.80
2019,04,01,02,02,6.80
2019,04,01,02,03,6.80
2019,04,01,02,04,6.70
2019,04,01,02,05,6.70
2019,04,01,02,06,6.70
2019,04,01,02,07,6.80
2019,04,01,02,08,6.80
2019,04,01,02,09,6.90
2019,04,01,02,10,6.90
2019,04,01,02,11,6.90
2019,04,01,02,12,6.90
2019,04,01,02,13,6.90
2019,04,01,02,14,7.00
2019,04,01,02,15,7.00
2019,04,01,02,16,7.10
2019,04,01,02,17,7.10
2019,04,01,02,18,7.10
2019,04,01,02,19,7.10
2019,04,01,02,20,7.10
2019,04,01,02,21,7.00
2019,04,01,02,22,7.00
2019,04,01,02,23,7.00
2019,04,01,02,24,6.90
2019,04,01,02,25,6.90
2019,04,01,02,26,6.90
2019,04,01,02,27,6.90
2019,04,01,02,28,6.80
2019,04,01,02,29,6.80
2019,04,01,02,30,6.80
2019,04,01,02,31,6.80
2019,04,01,02,32,6.80
2019,04,01,02,33,6.80
2019,04,01,02,34,6.70
2019,04,01,02,35,6.70
2019,04,01,02,36,6.70
2019,04,01,02,37,6.70
2019,04,01,02,38,6.70
2019,04,01,02,39,6.70
2019,04,01,02,40,6.70
2019,04,01,02,41,6.70
2019,04,01,02,42,6.70
2019,04,01,02,43,6.70
2019,04,01,02,44,6.70
2019,04,01,02,45,6.70
2019,04,01,02,46,6.70
2019,04,01,02,47,6.60
2019,04,01,02,48,6.60
2019,04,01,02,49,6.60
2019,04,01,02,50,6.60
2019,04,01,02,51,6.50
2019,04,01,02,52,6.50
2019,04,01,02,53,6.50
2019,04,01,02,54,6.40
2019,04,01,02,55,6.40
2019,04,01,02,56,6.40
2019,04,01,02,57,6.40
2019,04,01,02,58,6.30
2019,04,01,02,59,6.30
2019,04,01,03,00,6.30
2019,04,01,03,01,6.30
2019,04,01,03,02,6.20
2019,04,01,03,03,6.20
2019,04,01,03,04,6.20
2019,04,01,03,05,6.20
2019,04,01,03,06,6.20
2019,04,01,03,07,6.20
2019,04,01,03,08,6.20
2019,04,01,03,09,6.10
2019,04,01,03,10,6.10
2019,04,01,03,11,6.10
2019,04,01,03,12,6.10
2019,04,01,03,13,6.10
2019,04,01,03,14,6.00
2019,04,01,03,15,6.00
2019,04,01,03,16,6.00
2019,04,01,03,17,6.00
2019,04,01,03,18,6.00
2019,04,01,03,19,5.90
2019,04,01,03,20,5.90
2019,04,01,03,21,5.90
2019,04,01,03,22,5.90
2019,04,01,03,23,5.90
2019,04,01,03,24,6.00
2019,04,01,03,25,6.00
2019,04,01,03,26,6.00
2019,04,01,03,27,6.00
2019,04,01,03,28,6.00
2019,04,01,03,29,6.00
2019,04,01,03,30,6.00
2019,04,01,03,31,6.10
2019,04,01,03,32,6.00
2019,04,01,03,33,6.00
2019,04,01,03,34,6.00
2019,04,01,03,35,6.00
2019,04,01,03,36,6.00
2019,04,01,03,37,6.00
2019,04,01,03,38,6.00
2019,04,01,03,39,6.00
2019,04,01,03,40,6.00
2019,04,01,03,41,6.00
2019,04,01,03,42,6.00
2019,04,01,03,43,6.00
2019,04,01,03,44,6.00
2019,04,01,03,45,6.00
2019,04,01,03,46,5.90
2019,04,01,03,47,5.90
2019,04,01,03,48,5.90
2019,04,01,03,49,5.90
2019,04,01,03,50,5.90
2019,04,01,03,51,5.90
2019,04,01,03,52,5.90
2019,04,01,03,53,5.90
2019,04,01,03,54,5.90
2019,04,01,03,55,5.90
2019,04,01,03,56,5.90
2019,04,01,03,57,6.00
2019,04,01,03,58,6.00
2019,04,01,03,59,6.10
2019,04,01,04,00,6.20
2019,04,01,04,01,6.30
2019,04,01,04,02,6.30
2019,04,01,04,03,6.40
2019,04,01,04,04,6.50
2019,04,01,04,05,6.60
2019,04,01,04,06,6.60
2019,04,01,04,07,6.70
2019,04,01,04,08,6.70
2019,04,01,04,09,6.80
2019,04,01,04,10,6.80
2019,04,01,04,11,6.80
2019,04,01,04,12,6.90
2019,04,01,04,13,6.90
2019,04,01,04,14,6.90
2019,04,01,04,15,6.90
2019,04,01,04,16,6.90
2019,04,01,04,17,6.90
2019,04,01,04,18,6.90
2019,04,01,04,19,6.90
2019,04,01,04,20,6.90
2019,04,01,04,21,7.00
2019,04,01,04,22,7.00
2019,04,01,04,23,7.00
2019,04,01,04,24,7.00
2019,04,01,04,25,7.10
2019,04,01,04,26,7.10
2019,04,01,04,27,7.10
2019,04,01,04,28,7.10
2019,04,01,04,29,7.10
2019,04,01,04,30,7.10
2019,04,01,04,31,7.20
2019,04,01,04,32,7.20
2019,04,01,04,33,7.20
2019,04,01,04,34,7.20
2019,04,01,04,35,7.20
2019,04,01,04,36,7.20
2019,04,01,04,37,7.10
2019,04,01,04,38,7.10
2019,04,01,04,39,7.10
2019,04,01,04,40,7.10
2019,04,01,04,41,7.10
2019,04,01,04,42,7.10
2019,04,01,04,43,7.10
2019,04,01,04,44,7.10
2019,04,01,04,45,7.10
2019,04,01,04,46,7.10
2019,04,01,04,47,7.10
2019,04,01,04,48,7.10
2019,04,01,04,49,7.10
2019,04,01,04,50,7.10
2019,04,01,04,51,7.10
2019,04,01,04,52,7.10
2019,04,01,04,53,7.10
2019,04,01,04,54,7.20
2019,04,01,04,55,7.20
2019,04,01,04,56,7.20
2019,04,01,04,57,7.20
2019,04,01,04,58,7.20
2019,04,01,04,59,7.20
2019,04,01,05,00,7.20
2019,04,01,05,01,7.20
2019,04,01,05,02,7.20
2019,04,01,05,03,7.20
2019,04,01,05,04,7.20
2019,04,01,05,05,7.30
2019,04,01,05,06,7.20
2019,04,01,05,07,7.30
2019,04,01,05,08,7.30
2019,04,01,05,09,7.20
2019,04,01,05,10,7.20
2019,04,01,05,11,7.20
2019,04,01,05,12,7.20
2019,04,01,05,13,7.20
2019,04,01,05,14,7.20
2019,04,01,05,15,7.20
2019,04,01,05,16,7.20
2019,04,01,05,17,7.20
2019,04,01,05,18,7.20
2019,04,01,05,19,7.10
2019,04,01,05,20,7.10
2019,04,01,05,21,7.10
2019,04,01,05,22,7.10
2019,04,01,05,23,7.00
2019,04,01,05,24,7.00
2019,04,01,05,25,7.00
2019,04,01,05,26,6.90
2019,04,01,05,27,6.90
2019,04,01,05,28,6.80
2019,04,01,05,29,6.80
2019,04,01,05,30,6.80
2019,04,01,05,31,6.80
2019,04,01,05,32,6.70
2019,04,01,05,33,6.70
2019,04,01,05,34,6.70
2019,04,01,05,35,6.70
2019,04,01,05,36,6.70
2019,04,01,05,37,6.70
2019,04,01,05,38,6.70
2019,04,01,05,39,6.70
2019,04,01,05,40,6.70
2019,04,01,05,41,6.80
2019,04,01,05,42,6.80
2019,04,01,05,43,6.80
2019,04,01,05,44,6.90
2019,04,01,05,45,6.90
2019,04,01,05,46,7.00
2019,04,01,05,47,7.00
2019,04,01,05,48,7.10
2019,04,01,05,49,7.10
2019,04,01,05,50,7.10
2019,04,01,05,51,7.10
2019,04,01,05,52,7.20
2019,04,01,05,53,7.20
2019,04,01,05,54,7.20
2019,04,01,05,55,7.30
2019,04,01,05,56,7.30
2019,04,01,05,57,7.40
2019,04,01,05,58,7.40
2019,04,01,05,59,7.50
2019,04,01,06,00,7.60
2019,04,01,06,01,7.60
2019,04,01,06,02,7.70
2019,04,01,06,03,7.70
2019,04,01,06,04,7.70
2019,04,01,06,05,7.70
2019,04,01,06,06,7.70
2019,04,01,06,07,7.70
2019,04,01,06,08,7.70
2019,04,01,06,09,7.70
2019,04,01,06,10,7.80
2019,04,01,06,11,7.80
2019,04,01,06,12,7.80
2019,04,01,06,13,7.80
2019,04,01,06,14,7.80
2019,04,01,06,15,7.80
2019,04,01,06,16,7.80
2019,04,01,06,17,7.80
2019,04,01,06,18,7.80
2019,04,01,06,19,7.80
2019,04,01,06,20,7.70
2019,04,01,06,21,7.70
2019,04,01,06,22,7.70
2019,04,01,06,23,7.70
2019,04,01,06,24,7.70
2019,04,01,06,25,7.70
2019,04,01,06,26,7.70
2019,04,01,06,27,7.70
2019,04,01,06,28,7.60
2019,04,01,06,29,7.60
2019,04,01,06,30,7.70
2019,04,01,06,31,7.70
2019,04,01,06,32,7.70
2019,04,01,06,33,7.70
2019,04,01,06,34,7.70
2019,04,01,06,35,7.70
2019,04,01,06,36,7.80
2019,04,01,06,37,7.80
2019,04,01,06,38,7.80
2019,04,01,06,39,7.80
2019,04,01,06,40,7.80
2019,04,01,06,41,7.80
2019,04,01,06,42,7.90
2019,04,01,06,43,7.90
2019,04,01,06,44,7.90
2019,04,01,06,45,7.90
2019,04,01,06,46,8.00
2019,04,01,06,47,8.00
2019,04,01,06,48,8.00
2019,04,01,06,49,8.10
2019,04,01,06,50,8.10
2019,04,01,06,51,8.10
2019,04,01,06,52,8.10
2019,04,01,06,53,8.10
2019,04,01,06,54,8.10
2019,04,01,06,55,8.10
2019,04,01,06,56,8.10
2019,04,01,06,57,8.10
2019,04,01,06,58,8.10
2019,04,01,06,59,8.10
2019,04,01,07,00,8.10
2019,04,01,07,01,8.10
2019,04,01,07,02,8.10
2019,04,01,07,03,8.10
2019,04,01,07,04,8.10
2019,04,01,07,05,8.10
2019,04,01,07,06,8.10
2019,04,01,07,07,8.00
2019,04,01,07,08,8.10
2019,04,01,07,09,8.00
2019,04,01,07,10,8.00
2019,04,01,07,11,8.00
2019,04,01,07,12,8.00
2019,04,01,07,13,8.00
2019,04,01,07,14,8.00
2019,04,01,07,15,8.00
2019,04,01,07,16,8.00
2019,04,01,07,17,8.10
2019,04,01,07,18,8.10
2019,04,01,07,19,8.10
2019,04,01,07,20,8.20
2019,04,01,07,21,8.20
2019,04,01,07,22,8.20
2019,04,01,07,23,8.30
2019,04,01,07,24,8.30
2019,04,01,07,25,8.30
2019,04,01,07,26,8.30
2019,04,01,07,27,8.40
2019,04,01,07,28,8.40
2019,04,01,07,29,8.50
2019,04,01,07,30,8.50
2019,04,01,07,31,8.60
2019,04,01,07,32,8.60
2019,04,01,07,33,8.70
2019,04,01,07,34,8.70
2019,04,01,07,35,8.80
2019,04,01,07,36,8.80
2019,04,01,07,37,8.90
2019,04,01,07,38,9.00
2019,04,01,07,39,9.00
2019,04,01,07,40,9.10
2019,04,01,07,41,9.20
2019,04,01,07,42,9.30
2019,04,01,07,43,9.40
2019,04,01,07,44,9.50
2019,04,01,07,45,9.60
2019,04,01,07,46,9.70
2019,04,01,07,47,9.80
2019,04,01,07,48,9.80
2019,04,01,07,49,9.90
2019,04,01,07,50,10.00
2019,04,01,07,51,10.00
2019,04,01,07,52,10.10
2019,04,01,07,53,10.20
2019,04,01,07,54,10.20
2019,04,01,07,55,10.30
2019,04,01,07,56,10.30
2019,04,01,07,57,10.40
2019,04,01,07,58,10.40
2019,04,01,07,59,10.50
2019,04,01,08,00,10.60
2019,04,01,08,01,10.60
2019,04,01,08,02,10.60
2019,04,01,08,03,10.70
2019,04,01,08,04,10.70
2019,04,01,08,05,10.80
2019,04,01,08,06,10.80
2019,04,01,08,07,10.80
2019,04,01,08,08,10.80
2019,04,01,08,09,10.80
2019,04,01,08,10,10.80
2019,04,01,08,11,10.80
2019,04,01,08,12,10.90
2019,04,01,08,13,10.90
2019,04,01,08,14,11.00
2019,04,01,08,15,11.10
2019,04,01,08,16,11.10
2019,04,01,08,17,11.20
2019,04,01,08,18,11.20
2019,04,01,08,19,11.30
2019,04,01,08,20,11.30
2019,04,01,08,21,11.30
2019,04,01,08,22,11.30
2019,04,01,08,23,11.30
2019,04,01,08,24,11.40
2019,04,01,08,25,11.40
2019,04,01,08,26,11.50
2019,04,01,08,27,11.50
2019,04,01,08,28,11.50
2019,04,01,08,29,11.50
2019,04,01,08,30,11.50
2019,04,01,08,31,11.50
2019,04,01,08,32,11.50
2019,04,01,08,33,11.60
2019,04,01,08,34,11.60
2019,04,01,08,35,11.60
2019,04,01,08,36,11.60
2019,04,01,08,37,11.60
2019,04,01,08,38,11.60
2019,04,01,08,39,11.60
2019,04,01,08,40,11.70
2019,04,01,08,41,11.70
2019,04,01,08,42,11.70
2019,04,01,08,43,11.70
2019,04,01,08,44,11.70
2019,04,01,08,45,11.80
2019,04,01,08,46,11.80
2019,04,01,08,47,11.80
2019,04,01,08,48,11.80
2019,04,01,08,49,11.80
2019,04,01,08,50,11.90
2019,04,01,08,51,11.90
2019,04,01,08,52,11.90
2019,04,01,08,53,12.00
2019,04,01,08,54,12.00
2019,04,01,08,55,12.00
2019,04,01,08,56,12.00
2019,04,01,08,57,12.00
2019,04,01,08,58,12.00
2019,04,01,08,59,12.00
2019,04,01,09,00,12.10
2019,04,01,09,01,12.10
2019,04,01,09,02,12.10
2019,04,01,09,03,12.10
2019,04,01,09,04,12.10
2019,04,01,09,05,12.20
2019,04,01,09,06,12.20
2019,04,01,09,07,12.30
2019,04,01,09,08,12.30
2019,04,01,09,09,12.30
2019,04,01,09,10,12.40
2019,04,01,09,11,12.40
2019,04,01,09,12,12.40
2019,04,01,09,13,12.50
2019,04,01,09,14,12.60
2019,04,01,09,15,12.60
2019,04,01,09,16,12.60
2019,04,01,09,17,12.60
2019,04,01,09,18,12.70
2019,04,01,09,19,12.70
2019,04,01,09,20,12.70
2019,04,01,09,21,12.70
2019,04,01,09,22,12.70
2019,04,01,09,23,12.80
2019,04,01,09,24,12.80
2019,04,01,09,25,12.90
2019,04,01,09,26,12.90
2019,04,01,09,27,13.00
2019,04,01,09,28,13.00
2019,04,01,09,29,13.10
2019,04,01,09,30,13.10
2019,04,01,09,31,13.20
2019,04,01,09,32,13.20
2019,04,01,09,33,13.20
2019,04,01,09,34,13.20
2019,04,01,09,35,13.20
2019,04,01,09,36,13.20
2019,04,01,09,37,13.20
2019,04,01,09,38,13.20
2019,04,01,09,39,13.20
2019,04,01,09,40,13.10
2019,04,01,09,41,13.10
2019,04,01,09,42,13.20
2019,04,01,09,43,13.20
2019,04,01,09,44,13.20
2019,04,01,09,45,13.20
2019,04,01,09,46,13.20
2019,04,01,09,47,13.20
2019,04,01,09,48,13.20
2019,04,01,09,49,13.20
2019,04,01,09,50,13.20
2019,04,01,09,51,13.20
2019,04,01,09,52,13.20
2019,04,01,09,53,13.10
2019,04,01,09,54,13.10
2019,04,01,09,55,13.20
2019,04,01,09,56,13.20
2019,04,01,09,57,13.20
2019,04,01,09,58,13.30
2019,04,01,09,59,13.30
2019,04,01,10,00,13.30
2019,04,01,10,01,13.40
2019,04,01,10,02,13.40
2019,04,01,10,03,13.40
2019,04,01,10,04,13.40
2019,04,01,10,05,13.50
2019,04,01,10,06,13.50
2019,04,01,10,07,13.50
2019,04,01,10,08,13.60
2019,04,01,10,09,13.60
2019,04,01,10,10,13.60
2019,04,01,10,11,13.70
2019,04,01,10,12,13.70
2019,04,01,10,13,13.70
2019,04,01,10,14,13.80
2019,04,01,10,15,13.70
2019,04,01,10,16,13.80
2019,04,01,10,17,13.70
2019,04,01,10,18,13.70
2019,04,01,10,19,13.80
2019,04,01,10,20,13.80
2019,04,01,10,21,13.80
2019,04,01,10,22,13.80
2019,04,01,10,23,13.90
2019,04,01,10,24,13.90
2019,04,01,10,25,13.90
2019,04,01,10,26,13.80
2019,04,01,10,27,13.90
2019,04,01,10,28,13.90
2019,04,01,10,29,14.00
2019,04,01,10,30,14.00
2019,04,01,10,31,14.10
2019,04,01,10,32,14.20
2019,04,01,10,33,14.30
2019,04,01,10,34,14.40
2019,04,01,10,35,14.40
2019,04,01,10,36,14.50
2019,04,01,10,37,14.50
2019,04,01,10,38,14.50
2019,04,01,10,39,14.50
2019,04,01,10,40,14.50
2019,04,01,10,41,14.50
2019,04,01,10,42,14.50
2019,04,01,10,43,14.50
2019,04,01,10,44,14.50
2019,04,01,10,45,14.50
2019,04,01,10,46,14.50
2019,04,01,10,47,14.50
2019,04,01,10,48,14.50
2019,04,01,10,49,14.50
2019,04,01,10,50,14.50
2019,04,01,10,51,14.40
2019,04,01,10,52,14.50
2019,04,01,10,53,14.50
2019,04,01,10,54,14.50
2019,04,01,10,55,14.50
2019,04,01,10,56,14.50
2019,04,01,10,57,14.50
2019,04,01,10,58,14.60
2019,04,01,10,59,14.60
2019,04,01,11,00,14.60
2019,04,01,11,01,14.60
2019,04,01,11,02,14.60
2019,04,01,11,03,14.70
2019,04,01,11,04,14.60
2019,04,01,11,05,14.60
2019,04,01,11,06,14.60
2019,04,01,11,07,14.60
2019,04,01,11,08,14.70
2019,04,01,11,09,14.70
2019,04,01,11,10,14.80
2019,04,01,11,11,14.80
2019,04,01,11,12,14.90
2019,04,01,11,13,14.90
2019,04,01,11,14,15.00
2019,04,01,11,15,15.00
2019,04,01,11,16,15.20
2019,04,01,11,17,15.20
2019,04,01,11,18,15.30
2019,04,01,11,19,15.40
2019,04,01,11,20,15.50
2019,04,01,11,21,15.50
2019,04,01,11,22,15.50
2019,04,01,11,23,15.50
2019,04,01,11,24,15.60
2019,04,01,11,25,15.60
2019,04,01,11,26,15.50
2019,04,01,11,27,15.50
2019,04,01,11,28,15.50
2019,04,01,11,29,15.50
2019,04,01,11,30,15.60
2019,04,01,11,31,15.60
2019,04,01,11,32,15.70
2019,04,01,11,33,15.70
2019,04,01,11,34,15.80
2019,04,01,11,35,15.80
2019,04,01,11,36,15.90
2019,04,01,11,37,15.90
2019,04,01,11,38,15.90
2019,04,01,11,39,16.00
2019,04,01,11,40,16.00
2019,04,01,11,41,16.00
2019,04,01,11,42,16.10
2019,04,01,11,43,16.10
2019,04,01,11,44,16.10
2019,04,01,11,45,16.20
2019,04,01,11,46,16.20
2019,04,01,11,47,16.30
2019,04,01,11,48,16.30
2019,04,01,11,49,16.30
2019,04,01,11,50,16.30
2019,04,01,11,51,16.20
2019,04,01,11,52,16.20
2019,04,01,11,53,16.10
2019,04,01,11,54,16.10
2019,04,01,11,55,16.10
2019,04,01,11,56,16.20
2019,04,01,11,57,16.20
2019,04,01,11,58,16.20
2019,04,01,11,59,16.20
2019,04,01,12,00,16.20
2019,04,01,12,01,16.20
2019,04,01,12,02,16.20
2019,04,01,12,03,16.20
2019,04,01,12,04,16.10
2019,04,01,12,05,16.10
2019,04,01,12,06,16.10
2019,04,01,12,07,16.10
2019,04,01,12,08,16.10
2019,04,01,12,09,16.10
2019,04,01,12,10,16.10
2019,04,01,12,11,16.20
2019,04,01,12,12,16.20
2019,04,01,12,13,16.30
2019,04,01,12,14,16.40
2019,04,01,12,15,16.40
2019,04,01,12,16,16.50
2019,04,01,12,17,16.60
2019,04,01,12,18,16.60
2019,04,01,12,19,16.60
2019,04,01,12,20,16.60
2019,04,01,12,21,16.60
2019,04,01,12,22,16.60
2019,04,01,12,23,16.70
2019,04,01,12,24,16.70
2019,04,01,12,25,16.70
2019,04,01,12,26,16.70
2019,04,01,12,27,16.70
2019,04,01,12,28,16.60
2019,04,01,12,29,16.60
2019,04,01,12,30,16.70
2019,04,01,12,31,16.70
2019,04,01,12,32,16.70
2019,04,01,12,33,16.70
2019,04,01,12,34,16.80
2019,04,01,12,35,16.80
2019,04,01,12,36,16.90
2019,04,01,12,37,17.00
2019,04,01,12,38,17.00
2019,04,01,12,39,17.00
2019,04,01,12,40,16.90
2019,04,01,12,41,16.80
2019,04,01,12,42,16.80
2019,04,01,12,43,16.70
2019,04,01,12,44,16.70
2019,04,01,12,45,16.80
2019,04,01,12,46,16.80
2019,04,01,12,47,16.80
2019,04,01,12,48,16.80
2019,04,01,12,49,16.80
2019,04,01,12,50,16.80
2019,04,01,12,51,16.90
2019,04,01,12,52,16.90
2019,04,01,12,53,16.90
2019,04,01,12,54,16.90
2019,04,01,12,55,16.90
2019,04,01,12,56,16.90
2019,04,01,12,57,17.00
2019,04,01,12,58,17.00
2019,04,01,12,59,17.10
2019,04,01,13,00,17.10
2019,04,01,13,01,17.10
2019,04,01,13,02,17.20
2019,04,01,13,03,17.20
2019,04,01,13,04,17.20
2019,04,01,13,05,17.30
2019,04,01,13,06,17.30
2019,04,01,13,07,17.30
2019,04,01,13,08,17.30
2019,04,01,13,09,17.30
2019,04,01,13,10,17.40
2019,04,01,13,11,17.40
2019,04,01,13,12,17.40
2019,04,01,13,13,17.40
2019,04,01,13,14,17.40
2019,04,01,13,15,17.40
2019,04,01,13,16,17.40
2019,04,01,13,17,17.30
2019,04,01,13,18,17.30
2019,04,01,13,19,17.30
2019,04,01,13,20,17.40
2019,04,01,13,21,17.40
2019,04,01,13,22,17.50
2019,04,01,13,23,17.60
2019,04,01,13,24,17.60
2019,04,01,13,25,17.60
2019,04,01,13,26,17.60
2019,04,01,13,27,17.60
2019,04,01,13,28,17.50
2019,04,01,13,29,17.50
2019,04,01,13,30,17.60
2019,04,01,13,31,17.60
2019,04,01,13,32,17.60
2019,04,01,13,33,17.60
2019,04,01,13,34,17.60
2019,04,01,13,35,17.50
2019,04,01,13,36,17.50
2019,04,01,13,37,17.60
2019,04,01,13,38,17.60
2019,04,01,13,39,17.70
2019,04,01,13,40,17.70
2019,04,01,13,41,17.80
2019,04,01,13,42,17.90
2019,04,01,13,43,17.90
2019,04,01,13,44,17.90
2019,04,01,13,45,17.90
2019,04,01,13,46,17.90
2019,04,01,13,47,17.80
2019,04,01,13,48,17.80
2019,04,01,13,49,17.80
2019,04,01,13,50,17.80
2019,04,01,13,51,17.90
2019,04,01,13,52,17.90
2019,04,01,13,53,18.00
2019,04,01,13,54,18.10
2019,04,01,13,55,18.10
2019,04,01,13,56,18.10
2019,04,01,13,57,18.10
2019,04,01,13,58,18.10
2019,04,01,13,59,18.20
2019,04,01,14,00,18.20
2019,04,01,14,01,18.20
2019,04,01,14,02,18.10
2019,04,01,14,03,18.10
2019,04,01,14,04,18.10
2019,04,01,14,05,18.10
2019,04,01,14,06,18.10
2019,04,01,14,07,18.10
2019,04,01,14,08,18.10
2019,04,01,14,09,18.20
2019,04,01,14,10,18.20
2019,04,01,14,11,18.20
2019,04,01,14,12,18.30
2019,04,01,14,13,18.30
2019,04,01,14,14,18.40
2019,04,01,14,15,18.40
2019,04,01,14,16,18.40
2019,04,01,14,17,18.40
2019,04,01,14,18,18.40
2019,04,01,14,19,18.50
2019,04,01,14,20,18.50
2019,04,01,14,21,18.60
2019,04,01,14,22,18.60
2019,04,01,14,23,18.60
2019,04,01,14,24,18.70
2019,04,01,14,25,18.70
2019,04,01,14,26,18.70
2019,04,01,14,27,18.70
2019,04,01,14,28,18.80
2019,04,01,14,29,18.80
2019,04,01,14,30,18.80
2019,04,01,14,31,18.80
2019,04,01,14,32,18.90
2019,04,01,14,33,18.90
2019,04,01,14,34,19.00
2019,04,01,14,35,19.00
2019,04,01,14,36,19.10
2019,04,01,14,37,19.10
2019,04,01,14,38,19.10
2019,04,01,14,39,19.00
2019,04,01,14,40,19.10
2019,04,01,14,41,19.10
2019,04,01,14,42,19.10
2019,04,01,14,43,19.10
2019,04,01,14,44,19.10
2019,04,01,14,45,19.00
2019,04,01,14,46,18.90
2019,04,01,14,47,18.90
2019,04,01,14,48,18.90
2019,04,01,14,49,18.80
2019,04,01,14,50,18.90
2019,04,01,14,51,18.90
2019,04,01,14,52,18.90
2019,04,01,14,53,18.90
2019,04,01,14,54,19.00
2019,04,01,14,55,19.10
2019,04,01,14,56,19.10
2019,04,01,14,57,19.10
2019,04,01,14,58,19.20
2019,04,01,14,59,19.20
2019,04,01,15,00,19.30
2019,04,01,15,01,19.30
2019,04,01,15,02,19.30
2019,04,01,15,03,19.30
2019,04,01,15,04,19.30
2019,04,01,15,05,19.30
2019,04,01,15,06,19.30
2019,04,01,15,07,19.30
2019,04,01,15,08,19.20
2019,04,01,15,09,19.20
2019,04,01,15,10,19.20
2019,04,01,15,11,19.20
2019,04,01,15,12,19.20
2019,04,01,15,13,19.20
2019,04,01,15,14,19.20
2019,04,01,15,15,19.10
2019,04,01,15,16,19.20
2019,04,01,15,17,19.20
2019,04,01,15,18,19.10
2019,04,01,15,19,19.10
2019,04,01,15,20,19.10
2019,04,01,15,21,19.00
2019,04,01,15,22,19.00
2019,04,01,15,23,19.00
2019,04,01,15,24,19.00
2019,04,01,15,25,19.10
2019,04,01,15,26,19.20
2019,04,01,15,27,19.20
2019,04,01,15,28,19.30
2019,04,01,15,29,19.40
2019,04,01,15,30,19.40
2019,04,01,15,31,19.50
2019,04,01,15,32,19.60
2019,04,01,15,33,19.70
2019,04,01,15,34,19.70
2019,04,01,15,35,19.70
2019,04,01,15,36,19.80
2019,04,01,15,37,19.80
2019,04,01,15,38,19.80
2019,04,01,15,39,19.80
2019,04,01,15,40,19.80
2019,04,01,15,41,19.80
2019,04,01,15,42,19.80
2019,04,01,15,43,19.80
2019,04,01,15,44,19.80
2019,04,01,15,45,19.80
2019,04,01,15,46,19.80
2019,04,01,15,47,19.70
2019,04,01,15,48,19.70
2019,04,01,15,49,19.70
2019,04,01,15,50,19.70
2019,04,01,15,51,19.70
2019,04,01,15,52,19.80
2019,04,01,15,53,19.80
2019,04,01,15,54,19.80
2019,04,01,15,55,19.90
2019,04,01,15,56,19.90
2019,04,01,15,57,20.00
2019,04,01,15,58,20.10
2019,04,01,15,59,20.10
2019,04,01,16,00,20.10
2019,04,01,16,01,20.10
2019,04,01,16,02,20.20
2019,04,01,16,03,20.10
2019,04,01,16,04,20.20
2019,04,01,16,05,20.20
2019,04,01,16,06,20.20
2019,04,01,16,07,20.10
2019,04,01,16,08,20.10
2019,04,01,16,09,20.10
2019,04,01,16,10,20.00
2019,04,01,16,11,20.00
2019,04,01,16,12,20.00
2019,04,01,16,13,20.00
2019,04,01,16,14,20.00
2019,04,01,16,15,20.10
2019,04,01,16,16,20.10
2019,04,01,16,17,20.10
2019,04,01,16,18,20.20
2019,04,01,16,19,20.20
2019,04,01,16,20,20.20
2019,04,01,16,21,20.10
2019,04,01,16,22,20.10
2019,04,01,16,23,20.10
2019,04,01,16,24,20.10
2019,04,01,16,25,20.10
2019,04,01,16,26,20.10
2019,04,01,16,27,20.10
2019,04,01,16,28,20.20
2019,04,01,16,29,20.20
2019,04,01,16,30,20.30
2019,04,01,16,31,20.30
2019,04,01,16,32,20.30
2019,04,01,16,33,20.30
2019,04,01,16,34,20.30
2019,04,01,16,35,20.30
2019,04,01,16,36,20.30
2019,04,01,16,37,20.30
2019,04,01,16,38,20.20
2019,04,01,16,39,20.20
2019,04,01,16,40,20.20
2019,04,01,16,41,20.20
2019,04,01,16,42,20.20
2019,04,01,16,43,20.30
2019,04,01,16,44,20.30
2019,04,01,16,45,20.40
2019,04,01,16,46,20.40
2019,04,01,16,47,20.50
2019,04,01,16,48,20.60
2019,04,01,16,49,20.60
2019,04,01,16,50,20.60
2019,04,01,16,51,20.70
2019,04,01,16,52,20.70
2019,04,01,16,53,20.70
2019,04,01,16,54,20.70
2019,04,01,16,55,20.70
2019,04,01,16,56,20.70
2019,04,01,16,57,20.60
2019,04,01,16,58,20.60
2019,04,01,16,59,20.60
2019,04,01,17,00,20.60
2019,04,01,17,01,20.60
2019,04,01,17,02,20.60
2019,04,01,17,03,20.60
2019,04,01,17,04,20.50
2019,04,01,17,05,20.50
2019,04,01,17,06,20.50
2019,04,01,17,07,20.50
2019,04,01,17,08,20.50
2019,04,01,17,09,20.50
2019,04,01,17,10,20.50
2019,04,01,17,11,20.50
2019,04,01,17,12,20.40
2019,04,01,17,13,20.40
2019,04,01,17,14,20.40
2019,04,01,17,15,20.40
2019,04,01,17,16,20.40
2019,04,01,17,17,20.40
2019,04,01,17,18,20.40
2019,04,01,17,19,20.50
2019,04,01,17,20,20.50
2019,04,01,17,21,20.50
2019,04,01,17,22,20.50
2019,04,01,17,23,20.60
2019,04,01,17,24,20.60
2019,04,01,17,25,20.60
2019,04,01,17,26,20.60
2019,04,01,17,27,20.60
2019,04,01,17,28,20.60
2019,04,01,17,29,20.60
2019,04,01,17,30,20.60
2019,04,01,17,31,20.60
2019,04,01,17,32,20.60
2019,04,01,17,33,20.50
2019,04,01,17,34,20.50
2019,04,01,17,35,20.40
2019,04,01,17,36,20.40
2019,04,01,17,37,20.40
2019,04,01,17,38,20.40
2019,04,01,17,39,20.40